[[{"header":{"parameterUnit":"m.s-1","parameterCategory":1,"la1":30.2991,"la2":30.254,"lo1":-89.0895,"lo2":-89.0444,"dy":0.0017,"dx":0.0017,"nx":28,"ny":28,"refTime":"2024-03-15T21:00:00:Z","depth":0,"parameterNumber":2,"parameterNumberName":"U-component_of_WINDS"},"data":[0,0,0,0,0,0,0,0,0,0,0,0,0,0,0,0,0,0,0,0,0,0,0,0,0,0,0,0,0,0,0,0,0,0,0,0,0,0,0,0,0,0,0,0,0,0,0,0,0,0,0,0,0,0,0,0,0,0,0.258,0.2581,0,0.2628,0.2628,0.2629,0.2665,0.2666,0.2666,0.2666,0.2715,0.2716,0.2717,0,0,0,0,0,0,0,0,0,0,0,0,0,0.2519,0.252,0.258,0.2581,0.2582,0.2628,0.2628,0.2629,0.2665,0.2666,0.2666,0.2666,0.2714,0.2716,0.2717,0,0,0,0,0,0,0,0,0,0,0,0,0,0.2554,0.252,0.258,0.2605,0.2608,0.2628,0.2628,0.2629,0.2665,0.2666,0.2666,0.2667,0.2714,0.2715,0.2717,0.2716,0,0,0.2721,0.2722,0,0,0,0,0,0,0,0,0.2552,0.2556,0.2601,0.2603,0.2607,0.2641,0.2624,0.2658,0.2665,0.2643,0.2666,0.2667,0.269,0.2693,0.2701,0.2718,0.272,0.2721,0.2722,0.2723,0.2723,0,0,0,0,0,0,0,0.2549,0.2554,0.2599,0.2601,0.2605,0.2613,0.2619,0.2631,0.2663,0.2645,0.2648,0.2653,0.2691,0.27,0.2702,0.2721,0.2721,0.2723,0.2724,0.2724,0.2735,0.2734,0,0,0,0,0,0,0.2543,0.2552,0.2598,0.2601,0.258,0.2614,0.262,0.2629,0.2663,0.2669,0.2653,0.2655,0.2697,0.2701,0.2704,0.2703,0.2723,0.2724,0.2725,0.2736,0.2735,0.2734,0,0,0,0,0,0,0.2542,0.2547,0.2596,0.2577,0.2584,0.2614,0.2625,0.263,0.2638,0.2669,0.2674,0.2655,0.2697,0.2702,0.2712,0.2705,0.2725,0.2726,0.2736,0.2735,0.2734,0.2701,0,0,0,0,0,0,0.254,0.2546,0.2547,0.2577,0.2585,0.2603,0.2624,0.2631,0.2641,0.2644,0.2673,0.2678,0.2698,0.2709,0.2713,0.2707,0.2727,0.2737,0.2736,0.2735,0.2703,0.2699,0.2696,0,0,0,0,0,0.2538,0.2536,0.2547,0.2552,0.2586,0.2603,0.2607,0.2631,0.264,0.264,0.2659,0.2677,0.2705,0.271,0.2715,0.2709,0.2738,0.2736,0.2735,0.2704,0.27,0.2696,0,0,0,0,0,0,0.2506,0.2541,0.2553,0.2561,0.2578,0.2609,0.261,0.2625,0.2641,0.2643,0.2671,0.2677,0.2683,0.2697,0.2702,0.2708,0.2723,0.2723,0.2698,0.2694,0.2691,0.2687,0.2729,0,0,0,0,0,0.25,0.2511,0.254,0.2545,0.2553,0.258,0.2588,0.2604,0.2623,0.2631,0.2651,0.2668,0.268,0.2688,0.2702,0.2705,0.271,0.2703,0.2699,0.2696,0.2695,0.2695,0.2691,0.273,0.273,0.273,0,0,0.2488,0.2508,0.2513,0.2539,0.2554,0.2564,0.2586,0.2596,0.2602,0.2632,0.2642,0.2656,0.2678,0.2683,0.2686,0.2695,0.2686,0.2695,0.2692,0.2693,0.2693,0.2689,0.2686,0.2729,0.2729,0.2729,0,0,0.247,0.2487,0.2491,0.2505,0.2528,0.2545,0.2546,0.2573,0.2584,0.2593,0.2615,0.2623,0.2645,0.2658,0.2668,0.2651,0.2666,0.2654,0.2636,0.2635,0.2632,0.2629,0.2621,0.2618,0.2653,0.2653,0.2653,0,0.2452,0.2468,0.2492,0.2499,0.2509,0.2535,0.2538,0.2551,0.2577,0.2582,0.2591,0.2616,0.2633,0.264,0.2635,0.2643,0.2643,0.2651,0.263,0.2628,0.2626,0.2618,0.2615,0.2651,0.2652,0.2652,0.2652,0,0.2443,0.2453,0.2454,0.2476,0.2486,0.2492,0.2515,0.2522,0.2536,0.2552,0.256,0.258,0.2596,0.2599,0.2614,0.2607,0.2612,0.2625,0.2641,0.262,0.2613,0.261,0.2649,0.265,0.265,0.265,0,0,0.2409,0.2442,0.2442,0.2451,0.2476,0.2484,0.2489,0.2505,0.2509,0.2525,0.2528,0.2544,0.2556,0.2566,0.2583,0.2582,0.2564,0.2595,0.2596,0.2587,0.2554,0.2543,0.2539,0.2574,0.2574,0.2574,0.2552,0,0.2394,0.2406,0.2426,0.243,0.2438,0.2461,0.2466,0.248,0.2494,0.2502,0.2518,0.2528,0.2543,0.2549,0.255,0.2566,0.2557,0.2568,0.2577,0.2577,0.2569,0.2536,0.2525,0.2504,0.2549,0.2549,0.2549,0,0.2379,0.2392,0.2397,0.2418,0.2422,0.2425,0.2439,0.2447,0.2463,0.2473,0.2483,0.25,0.2505,0.2519,0.2525,0.2532,0.2536,0.2544,0.2544,0.2545,0.2561,0.2535,0.2498,0.2494,0.2545,0.2545,0.2546,0,0.2351,0.237,0.2374,0.2381,0.2407,0.2408,0.2419,0.2435,0.2442,0.2454,0.2458,0.247,0.2476,0.2485,0.2504,0.2513,0.2506,0.2523,0.2513,0.2512,0.251,0.251,0.2472,0.2515,0.2515,0.2515,0.2515,0,0.2332,0.2334,0.2361,0.2364,0.2365,0.2388,0.2388,0.2401,0.2414,0.2419,0.244,0.2443,0.2468,0.2474,0.2488,0.2489,0.2493,0.2499,0.2503,0.2497,0.2496,0.25,0.2501,0.2514,0.2515,0.2515,0.2515,0,0.2302,0.2321,0.2327,0.2349,0.2354,0.2354,0.2372,0.2375,0.2389,0.2393,0.2396,0.2418,0.2425,0.2444,0.2457,0.2467,0.2463,0.2471,0.2457,0.2459,0.2447,0.2447,0.2409,0.2404,0.2452,0.2451,0.2451,0,0.2288,0.2289,0.2311,0.2315,0.2324,0.2331,0.2337,0.2357,0.2363,0.2379,0.2379,0.2387,0.2395,0.2405,0.2422,0.2431,0.2438,0.2424,0.2439,0.2432,0.2435,0.2434,0.2433,0.242,0.242,0.2419,0.2419,0,0.2261,0.2269,0.2278,0.2288,0.2294,0.2303,0.2314,0.2316,0.2339,0.2343,0.235,0.2356,0.2367,0.2375,0.2386,0.2395,0.241,0.2413,0.2411,0.2404,0.2396,0.2398,0.2446,0.2414,0.2415,0.2415,0.2415,0.2416,0.2238,0.2238,0.2252,0.226,0.2269,0.2277,0.228,0.2293,0.2299,0.231,0.2321,0.2326,0.2339,0.2354,0.2362,0.2365,0.2373,0.2371,0.237,0.2368,0.2364,0.2395,0.2367,0.2368,0.2368,0.2368,0.2368,0,0.221,0.2219,0.2226,0.2238,0.2243,0.2256,0.2267,0.227,0.2274,0.2284,0.2291,0.2297,0.2303,0.2318,0.2326,0.2325,0.2331,0.2326,0.2325,0.2327,0.2358,0.2358,0.232,0.232,0.232,0.232,0.232,0.232,0.2196,0.2197,0.2206,0.2211,0.2221,0.2225,0.223,0.2237,0.2244,0.225,0.2255,0.2265,0.2276,0.2284,0.2289,0.2293,0.2294,0.2286,0.2292,0.232,0.2325,0.2329,0.233,0.2286,0.2286,0.226,0.226,0.226]},{"header":{"parameterUnit":"m.s-1","parameterCategory":1,"la1":30.2991,"la2":30.254,"lo1":-89.0895,"lo2":-89.0444,"dy":0.0017,"dx":0.0017,"nx":28,"ny":28,"refTime":"2024-03-15T21:00:00:Z","depth":0,"parameterNumber":3,"parameterNumberName":"V-component_of_WINDS"},"data":[0,0,0,0,0,0,0,0,0,0,0,0,0,0,0,0,0,0,0,0,0,0,0,0,0,0,0,0,0,0,0,0,0,0,0,0,0,0,0,0,0,0,0,0,0,0,0,0,0,0,0,0,0,0,0,0,0,0,2.2934,2.2935,0,2.3039,2.304,2.3041,2.3101,2.3101,2.3101,2.3102,2.3206,2.3208,2.3211,0,0,0,0,0,0,0,0,0,0,0,0,0,2.278,2.2782,2.2934,2.2935,2.2936,2.3039,2.304,2.3042,2.3101,2.3101,2.3101,2.3102,2.3205,2.3208,2.3211,0,0,0,0,0,0,0,0,0,0,0,0,0,2.2862,2.2783,2.2934,2.2978,2.2984,2.3038,2.304,2.3042,2.3101,2.3101,2.3102,2.3102,2.3204,2.3208,2.3212,2.3229,0,0,2.3223,2.3225,0,0,0,0,0,0,0,0,2.2857,2.2867,2.2971,2.2975,2.2981,2.3057,2.3024,2.3104,2.3101,2.3056,2.3102,2.3102,2.3156,2.3164,2.3183,2.3234,2.3238,2.3224,2.3226,2.3228,2.3229,0,0,0,0,0,0,0,2.2851,2.2863,2.2975,2.2972,2.2978,2.2992,2.3004,2.304,2.3103,2.306,2.3065,2.3077,2.3159,2.3179,2.3186,2.324,2.3224,2.3227,2.3229,2.3231,2.3307,2.3307,0,0,0,0,0,0,2.2839,2.2858,2.2972,2.2978,2.2919,2.2994,2.3008,2.3032,2.3103,2.3114,2.3076,2.3079,2.3172,2.3181,2.3189,2.3213,2.3228,2.3231,2.3233,2.3308,2.3307,2.3307,0,0,0,0,0,0,2.2836,2.2849,2.2968,2.292,2.2936,2.2997,2.3024,2.3034,2.3054,2.3115,2.3126,2.3085,2.3173,2.3184,2.3218,2.3217,2.3233,2.3237,2.3308,2.3308,2.3307,2.326,0,0,0,0,0,0,2.2831,2.2847,2.2856,2.2919,2.2938,2.2996,2.3024,2.3036,2.3061,2.3066,2.3126,2.3136,2.3174,2.3212,2.3222,2.3223,2.324,2.3308,2.3308,2.3307,2.3262,2.3259,2.3255,0,0,0,0,0,2.2825,2.2838,2.2856,2.2869,2.295,2.2996,2.3007,2.305,2.3061,2.3069,2.3107,2.3135,2.3216,2.3215,2.3227,2.3229,2.3309,2.3308,2.3307,2.3264,2.3259,2.3255,0,0,0,0,0,0,2.2772,2.2848,2.2868,2.2902,2.2942,2.3006,2.3018,2.3044,2.3082,2.3084,2.3135,2.3148,2.3177,2.3207,2.3205,2.3248,2.3265,2.3267,2.3228,2.3224,2.322,2.3213,2.3243,0,0,0,0,0,2.2765,2.2797,2.286,2.2884,2.2904,2.2957,2.2979,2.3009,2.3052,2.3069,2.311,2.315,2.3184,2.3206,2.3241,2.3267,2.3279,2.3273,2.327,2.3267,2.3267,2.3281,2.3278,2.3305,2.3305,2.3305,0,0,2.275,2.2794,2.2812,2.2875,2.291,2.294,2.2971,2.3003,2.3025,2.3073,2.3108,2.3139,2.3187,2.3216,2.3232,2.3242,2.3262,2.3266,2.3263,2.3265,2.328,2.3277,2.3275,2.3304,2.3305,2.3305,0,0,2.2737,2.2775,2.2798,2.2832,2.2884,2.2919,2.2924,2.2984,2.3007,2.3042,2.3078,2.3105,2.3164,2.3196,2.3219,2.3215,2.3241,2.3225,2.3207,2.3219,2.3217,2.3215,2.3212,2.3211,2.3226,2.3226,2.3226,0,2.2711,2.276,2.2807,2.2836,2.2862,2.2907,2.2929,2.2959,2.302,2.3035,2.3046,2.3119,2.3154,2.3191,2.319,2.3208,2.3214,2.3219,2.3214,2.3213,2.3212,2.3209,2.3208,2.3223,2.3224,2.3224,2.3224,0,2.2725,2.2758,2.277,2.2828,2.2855,2.288,2.2929,2.295,2.2976,2.301,2.3044,2.3087,2.3131,2.3142,2.3168,2.3181,2.3186,2.3204,2.3222,2.3206,2.3205,2.3204,2.322,2.3221,2.3222,2.3222,0,0,2.2685,2.2765,2.2769,2.2795,2.2854,2.2879,2.2905,2.2949,2.2965,2.3004,2.3026,2.3074,2.309,2.3117,2.3147,2.3158,2.315,2.3175,2.3177,2.3168,2.3165,2.315,2.3148,2.3167,2.3167,2.3167,2.316,0,2.268,2.2731,2.2772,2.2807,2.2837,2.2878,2.2901,2.2938,2.2969,2.2997,2.3031,2.3063,2.3084,2.31,2.3113,2.3148,2.315,2.3149,2.3186,2.3187,2.3173,2.3148,2.3133,2.3124,2.316,2.316,2.316,0,2.2683,2.272,2.2758,2.2812,2.2826,2.2845,2.2887,2.2914,2.2956,2.2977,2.3006,2.3037,2.3064,2.3079,2.3116,2.3115,2.3132,2.3151,2.3152,2.3157,2.3172,2.3151,2.3123,2.3121,2.316,2.316,2.316,0,2.2648,2.2707,2.2737,2.2758,2.2822,2.2834,2.2861,2.2904,2.2926,2.2962,2.2976,2.3014,2.3035,2.3062,2.3101,2.3109,2.3133,2.3152,2.315,2.3149,2.3154,2.3153,2.3127,2.3166,2.3166,2.3166,2.3166,0,2.2638,2.266,2.2722,2.274,2.2764,2.281,2.2832,2.2862,2.2899,2.2922,2.296,2.2981,2.3031,2.3057,2.3088,2.3113,2.3122,2.3139,2.3146,2.3135,2.3133,2.3147,2.3148,2.3165,2.3165,2.3166,2.3166,0,2.2604,2.2647,2.2682,2.2739,2.2753,2.2768,2.2816,2.2834,2.2866,2.2895,2.2904,2.2954,2.2986,2.3028,2.3073,2.3094,2.3114,2.3127,2.31,2.3105,2.31,2.3099,2.3082,2.3081,2.3121,2.312,2.312,0,2.2595,2.2613,2.2671,2.2689,2.2715,2.2745,2.2767,2.2812,2.2833,2.2881,2.2893,2.2928,2.2959,2.3008,2.3047,2.3081,2.3094,2.3085,2.31,2.3087,2.3092,2.3091,2.3091,2.3082,2.3081,2.3081,2.308,0,2.2575,2.2594,2.2627,2.2665,2.2691,2.2723,2.2757,2.2769,2.282,2.2842,2.2876,2.2899,2.2945,2.2979,2.3017,2.3043,2.3069,2.3075,2.3077,2.3065,2.3048,2.3056,2.309,2.3076,2.3076,2.3077,2.3077,2.3077,2.2553,2.2569,2.2612,2.2645,2.2675,2.2704,2.2724,2.2757,2.2786,2.2828,2.2851,2.2883,2.2922,2.2977,2.3001,2.3026,2.3036,2.3038,2.3038,2.3038,2.3033,2.3044,2.3033,2.3033,2.3033,2.3034,2.3034,0,2.2533,2.2562,2.2592,2.2638,2.2663,2.2686,2.2723,2.2742,2.2771,2.2805,2.2834,2.2871,2.2903,2.2943,2.2978,2.2989,2.3002,2.2996,2.2996,2.3001,2.3023,2.3018,2.2986,2.2986,2.2986,2.2986,2.2986,2.2986,2.2526,2.2554,2.2578,2.2619,2.2648,2.268,2.2699,2.2726,2.2754,2.2793,2.282,2.2847,2.2883,2.2919,2.2949,2.296,2.297,2.2961,2.2975,2.2995,2.3,2.3004,2.2999,2.2963,2.2963,2.295,2.295,2.295]}]]